Regional Weather Roundup
Issued by NWS

Home | Current Version | Previous Version | Graphics & Text | Print | Product List | Glossary On
Versions: 1 2 3 4 5 6 7 8 9 10 11 12 13 14 15 16 17 18 19 20 21 22 23 24 25 26 27 28 29 30 31 32 33 34 35 36 37 38 39 40 41 42 43 44 45 46 47 48 49 50
000
ASUS43 KDMX 240703
RWRIA

WEATHER ROUNDUP FOR IOWA
NATIONAL WEATHER SERVICE DES MOINES IA
200 AM CDT TUE MAY 24 2016

NOTE: "FAIR" INDICATES FEW OR NO CLOUDS BELOW 12,000 FEET WITH NO
SIGNIFICANT WEATHER AND/OR OBSTRUCTIONS TO VISIBILITY.

* - THESE STATIONS ARE NOT NWS STATIONS...THUS NOT UNDER NWS
QUALITY CONTROL.  THEY ALSO DO NOT REPORT WEATHER SUCH
AS PRECIPITATION OR FOG.

IAZ001>003-012>014-020>022-031>034-043>046-240800-
   NORTHWEST IOWA

CITY           SKY/WX    TMP DP  RH WIND       PRES   REMARKS
CARROLL *      LGT RAIN  64  63  94 S15G23    29.88S
CHEROKEE *     CLOUDY    63  62  99 S7        29.81F
DENISON *      LGT RAIN  64  63  94 SE16G24   29.82F
LE MARS *      CLOUDY    64  63  94 S9        29.81S
ORANGE CITY *  CLEAR     63  63 100 CALM      29.81R
SHELDON *      CLOUDY    63  63 100 S9        29.80R
SIOUX CITY       N/A    N/A N/A N/A MISG      29.80F
SPENCER        CLOUDY    63  60  90 S9        29.81S
STORM LAKE *   MOCLDY   N/A N/A N/A S16G23    29.81R
$$

IAZ055>058-069>071-079>083-090>094-240800-
   SOUTHWEST IOWA

CITY           SKY/WX    TMP DP  RH WIND       PRES   REMARKS
ATLANTIC *     LGT RAIN  64  63  94 CALM      29.89R
AUDUBON *      HVY RAIN  63  61  94 NW8       29.93R
CLARINDA *       N/A     66  61  82 MISG      29.88S
COUNCIL BLFS * MOCLDY    63  61  94 SW9       29.85R
CRESTON *      CLOUDY    63  61  94 S6        29.89S
HARLAN  *        N/A    N/A N/A N/A MISG        N/A
LAMONI         CLOUDY    65  60  84 S9        29.88F
RED OAK *      LGT RAIN  64  63  94 SE12      29.82F
SHENANDOAH *   LGT RAIN  66  63  88 S14G23    29.85F
$$

IAZ047>049-059>061-072>074-084-240800-
   CENTRAL IOWA

CITY           SKY/WX    TMP DP  RH WIND       PRES   REMARKS
AMES           CLOUDY    60  57  89 SW3       29.88R
ANKENY *       CLOUDY    68  63  83 SW10G16   29.87R
BOONE *        CLOUDY    66  61  82 SW7       29.87S
CHARITON *     CLOUDY    66  61  82 SW9       29.88S
DES MOINES     TSTM      67  62  84 SW7       29.87S
GRINNELL*      CLOUDY    66  55  68 S7        29.88F
KNOXVILLE *    CLOUDY    66  59  77 S8        29.86S
MARSHALLTOWN   CLOUDY    63  54  72 CALM      29.86F
NEWTON *       CLOUDY    66  59  77 S6        29.87S
PELLA *        CLOUDY    66  57  73 S6        29.88S
PERRY *        LGT RAIN  64  63  94 SW7       29.88R
$$

IAZ004>006-015-016-023>025-035-036-240800-
   NORTH CENTRAL IOWA

CITY           SKY/WX    TMP DP  RH WIND       PRES   REMARKS
ALGONA *       CLOUDY    64  61  88 S18G26    29.80F
CLARION *      CLOUDY    63  61  94 S14       29.84F
ESTHERVILLE    MOCLDY    62  60  93 S13       29.80S
FORT DODGE *   MOCLDY    64  57  77 S9        29.86S
MASON CITY     MOCLDY    64  60  87 S10       29.85F
FOREST CITY *  MOCLDY    64  59  82 S12       29.83F
WEBSTER CITY * CLOUDY    63  61  94 S12       29.84F
IOWA FALLS *     N/A     61  57  88 S6        29.88S
$$

IAZ007>011-017>019-026>030-037>042-050>054-066-240800-
   NORTHEAST IOWA

CITY           SKY/WX    TMP DP  RH WIND       PRES   REMARKS
CEDAR RAPIDS   MOCLDY    66  54  65 S8        29.88F
CHARLES CITY * PTCLDY    64  63  94 S8        29.87F
CLINTON *      PTCLDY    63  50  62 S7        29.92S
DECORAH *      CLOUDY    68  54  60 S6        29.86F
DUBUQUE        MOCLDY    64  49  57 SW10      29.91R
MONTICELLO *   CLOUDY    66  50  55 CALM      29.90S
OELWEIN *      CLOUDY    66  54  63 S8        29.88F
WATERLOO       CLOUDY    66  53  63 S6        29.86F
$$

IAZ064-065-067-068-078-240800-
   EAST CENTRAL IOWA

CITY           SKY/WX    TMP DP  RH WIND       PRES   REMARKS
DAVENPORT      PTCLDY    66  48  52 S8        29.92S
IOWA CITY      CLOUDY    64  54  69 SE3       29.91S
MT. PLEASANT * CLOUDY    66  54  63 S7        29.91F
MUSCATINE *    PTCLDY    64  50  59 S6        29.91S
QUAD CITIES    MOCLDY    67  48  50 CALM      29.91S
$$

IAZ062-063-075>077-085>089-095>099-240800-
   SOUTHEAST IOWA

CITY           SKY/WX    TMP DP  RH WIND       PRES   REMARKS
BURLINGTON     CLOUDY    66  52  60 S8        29.91S
FAIRFIELD *      N/A    N/A N/A N/A MISG        N/A
FORT MADISON * MOCLDY    66  54  63 S6        29.93S
KEOKUK *       CLOUDY    68  52  56 S8        29.91S
OSKALOOSA *      N/A     64  55  72 S8        29.88F
OTTUMWA        CLOUDY    65  55  70 S10       29.88F
WASHINGTON *   CLEAR     64  54  68 S8        29.91F
$$

ABBREVIATIONS USED IN REMARKS
   TC - TEMPERATURES IN CELSIUS
  WCI - WIND CHILL INDEX
   HX - HEAT INDEX
  VSB - VISIBILITY
$$





USA.gov is the U.S. government's official web portal to all federal, state and local government web resources and services.